Flag for Poland Weather past 2 weeks in Gdańsk, Poland

Now
64 °F

Passing clouds.


Feels Like: 64 °F
Forecast: 51 / 68 °F
Wind: 7 mph from Northeast

Location: Gdansk-Rebiechowo

Current Time: Sep 15, 2014 at 11:56:45 AM

Latest Report: Sep 15, 2014 at 11:30 AM


Visibility: N/A

Pressure: 30.27 "Hg

Humidity: 78%

Dew point: 57 °F

Location of GdańskLocation

Historic Weather in Gdańsk — Graph

°F

Gdańsk temperature yesterday

Maximum temperature yesterday: 68 °F (at 11:00 AM)
Minimum temperature yesterday: 59 °F (at 5:00 AM)
Average temperature yesterday: 64 °F

Past Weeks' High & Low Weather Summary

 TemperatureHumidityPressure
High72 °F (Sep 5, 2:30 PM)100% (Sep 2, 6:00 AM)30.39 "Hg (Sep 2, 6:00 AM)
Low43 °F (Sep 6, 6:30 AM)33% (Sep 5, 5:00 PM)29.83 "Hg (Sep 10, 5:30 AM)
Average59 °F82%30.11 "Hg
* Reported Aug 31 10:00 AM — Sep 15 10:30 AM, Gdańsk, Weather by CustomWeather, © 2014

Note: Actual official high and low records may vary slightly from our data, if they occured in-between our weather recording intervals... More about our weather records

Advertising

Gdańsk weather history for previous 24 hours

 ConditionsComfort  
Time TempWeatherWind HumidityBarometerVisibility
10:30 AM
Sep 15
63 °FPassing clouds.8 mph83%30.27 "HgN/A
10:00 AM63 °FSunny.7 mph83%30.27 "Hg10 mi
9:30 AM63 °FPassing clouds.8 mph83%30.27 "HgN/A
9:00 AM61 °FSunny.8 mph88%30.24 "Hg10 mi
8:30 AM61 °FSunny.8 mph88%30.27 "Hg10 mi
8:00 AM59 °FClear.8 mph94%30.27 "Hg6 mi
7:30 AM59 °FClear.8 mph94%30.27 "Hg5 mi
7:00 AM59 °FClear.8 mph94%30.24 "Hg5 mi
6:30 AM59 °FClear.8 mph94%30.24 "Hg4 mi
6:00 AM59 °FClear.7 mph94%30.24 "Hg10 mi
5:30 AM59 °FClear.7 mph94%30.24 "Hg10 mi
5:00 AM59 °FClear.7 mph94%30.24 "Hg10 mi
4:30 AM59 °FClear.6 mph94%30.24 "Hg10 mi
4:00 AM59 °FClear.6 mph94%30.24 "Hg10 mi
3:30 AM57 °FPassing clouds.5 mph94%30.24 "HgN/A
3:00 AM59 °FClear.5 mph94%30.24 "Hg10 mi
2:30 AM59 °FClear.6 mph94%30.24 "Hg10 mi
2:00 AM61 °FClear.7 mph88%30.24 "Hg10 mi
1:30 AM61 °FClear.8 mph88%30.24 "Hg10 mi
1:00 AM61 °FClear.8 mph94%30.24 "Hg10 mi
12:30 AM63 °FClear.8 mph83%30.24 "Hg10 mi
12:00 AM63 °FClear.8 mph83%30.24 "Hg10 mi
11:30 PM
Sep 14
63 °FClear.9 mph88%30.24 "Hg10 mi
11:00 PM63 °FClear.10 mph88%30.24 "Hg10 mi
10:30 PM64 °FClear.9 mph83%30.21 "Hg10 mi
10:00 PM64 °FClear.9 mph83%30.21 "Hg10 mi
9:30 PM64 °FClear.9 mph83%30.21 "Hg10 mi
9:00 PM64 °FClear.12 mph83%30.21 "Hg10 mi
8:30 PM64 °FClear.10 mph83%30.21 "Hg10 mi
8:00 PM64 °FSunny.10 mph83%30.21 "Hg10 mi
7:30 PM63 °FSunny.9 mph88%30.21 "Hg10 mi
7:00 PM63 °FSunny.8 mph94%30.21 "Hg10 mi
6:30 PM64 °FPassing clouds.9 mph88%30.21 "HgN/A
6:00 PM64 °FSunny.10 mph88%30.21 "Hg10 mi
5:30 PM66 °FPassing clouds.9 mph83%30.21 "HgN/A
5:00 PM66 °FPassing clouds.10 mph83%30.21 "HgN/A
4:30 PM68 °FPassing clouds.10 mph73%30.21 "HgN/A
4:00 PM68 °FSunny.12 mph73%30.21 "Hg10 mi
3:30 PM68 °FPassing clouds.12 mph73%30.21 "HgN/A
3:00 PM68 °FSunny.13 mph73%30.21 "Hg10 mi
2:30 PM68 °FPassing clouds.12 mph69%30.21 "HgN/A
2:00 PM68 °FPassing clouds.12 mph73%30.21 "HgN/A
1:30 PM68 °FPassing clouds.12 mph69%30.21 "HgN/A
1:00 PM68 °FSunny.12 mph69%30.21 "Hg10 mi
12:30 PM68 °FPassing clouds.9 mph73%30.21 "HgN/A
12:00 PM68 °FPassing clouds.9 mph69%30.21 "HgN/A
11:30 AM68 °FPassing clouds.9 mph69%30.21 "HgN/A
11:00 AM68 °FPassing clouds.8 mph73%30.21 "HgN/A
Weather by CustomWeather, © 2014

See weather overviewHow to use our weather pages